Weather reports worldwide

Advertisment
Estaca de Bares, Spain (8004): temperature & dewpoint: 13.01.2018 06:00:00 - 19.01.2018 06:00:00 (CET)Estaca de Bares, Spain (8004): wind speed & gusts: 13.01.2018 06:00:00 - 19.01.2018 06:00:00 (CET)Estaca de Bares, Spain (8004): wind direction: 13.01.2018 06:00:00 - 19.01.2018 06:00:00 (CET)Estaca de Bares, Spain (8004): reduced air pressure: 13.01.2018 06:00:00 - 19.01.2018 06:00:00 (CET)Estaca de Bares, Spain (8004): visibility: 13.01.2018 06:00:00 - 19.01.2018 06:00:00 (CET)Estaca de Bares, Spain (8004): sunshine duration: 13.01.2018 06:00:00 - 19.01.2018 06:00:00 (CET)Estaca de Bares, Spain (8004): precipitation: 13.01.2018 06:00:00 - 19.01.2018 06:00:00 (CET)
Date & Time tt [°C] td [°C] ff [km/h] ff [kn] fx [km/h] fx [kn] dd ppp [hPa] vv [km] sd [min] rr [mm]
19.01.2018 06:00:00 11,7 10,3 21 12 44 24 WNW 1021,7 0,5 0 0,0
19.01.2018 05:00:00 12,0 10,4 29 16 34 19 WSW 1021,0 2,0 0 0,0
19.01.2018 04:00:00 11,9 10,3 29 16 36 19 WSW 1021,4 1,9 0 0,0
19.01.2018 03:00:00 11,8 10,2 26 14 35 19 WSW 1021,6 1,7 0 0,0
19.01.2018 02:00:00 11,8 10,0 31 17 38 20 WSW 1021,9 1,8 0 0,0
19.01.2018 01:00:00 11,8 10,0 31 17 42 23 WSW 1022,0 1,6 0 -
19.01.2018 00:00:00 11,9 10,2 32 17 39 21 WSW 1022,1 1,8 0 0,0
18.01.2018 23:00:00 11,9 9,9 34 19 44 24 WSW 1022,1 1,9 0 0,0
18.01.2018 22:00:00 11,9 9,8 36 19 47 25 WSW 1022,1 1,7 0 0,0
18.01.2018 21:00:00 12,1 9,7 39 21 50 27 WSW 1022,0 2,0 0 0,0
18.01.2018 20:00:00 12,0 9,4 39 21 50 27 WSW 1021,8 2,1 0 0,0
18.01.2018 19:00:00 11,9 9,0 39 21 47 26 WSW 1021,8 2,1 0 -
18.01.2018 18:00:00 12,0 9,0 41 22 49 27 WSW 1021,6 2,1 0 0,0
18.01.2018 17:00:00 12,3 8,8 41 22 53 29 WSW 1021,5 2,1 6 0,0
18.01.2018 16:00:00 12,6 8,7 40 22 53 29 WSW 1021,2 2,2 21 0,0
18.01.2018 15:00:00 12,6 8,9 42 23 52 28 WSW 1021,6 2,0 4 0,0
18.01.2018 14:00:00 12,9 8,8 42 23 51 28 WSW 1022,3 2,1 9 0,0
18.01.2018 13:00:00 12,2 8,5 45 24 53 29 WSW 1022,7 2,2 9 -
18.01.2018 12:00:00 11,6 8,1 44 24 52 28 WSW 1023,2 2,3 5 0,0
18.01.2018 11:00:00 11,0 7,8 42 23 52 28 WSW 1023,4 1,9 0 0,0
18.01.2018 10:00:00 10,6 7,3 42 23 51 28 WSW 1023,3 2,1 0 0,0
18.01.2018 09:00:00 10,4 6,8 41 22 51 28 WSW 1023,0 2,0 0 0,0
18.01.2018 08:00:00 10,3 6,4 40 21 52 28 WSW 1023,2 1,9 0 0,0
18.01.2018 07:00:00 10,4 6,4 46 25 56 30 WSW 1023,0 1,8 0 -
18.01.2018 06:00:00 10,2 5,9 48 26 58 31 WSW 1023,0 2,2 0 0,0
18.01.2018 05:00:00 10,1 5,9 43 23 52 28 WSW 1023,5 1,9 0 0,0
18.01.2018 04:00:00 10,0 5,6 42 23 53 29 WSW 1024,0 1,9 0 0,0
18.01.2018 03:00:00 10,1 5,9 40 22 46 25 WSW 1024,5 1,9 0 0,0
18.01.2018 02:00:00 10,3 5,5 36 20 42 23 WSW 1025,4 1,8 0 0,0
18.01.2018 01:00:00 10,6 5,8 31 17 38 21 WSW 1026,3 1,6 0 -
18.01.2018 00:00:00 10,7 5,6 30 16 40 22 WSW 1026,7 1,7 0 0,0
17.01.2018 23:00:00 10,8 5,9 28 15 38 20 WSW 1027,3 1,8 0 0,0
17.01.2018 22:00:00 10,8 6,1 29 16 44 24 W 1027,4 1,7 0 0,0
17.01.2018 21:00:00 10,8 6,7 22 12 33 18 WSW 1027,5 1,6 0 0,0
17.01.2018 20:00:00 11,0 5,5 32 17 38 20 W 1027,1 1,9 0 0,0
17.01.2018 19:00:00 11,4 6,5 31 17 35 19 W 1027,3 2,0 0 -
17.01.2018 18:00:00 11,3 5,8 22 12 31 17 W 1027,6 1,8 0 0,0
17.01.2018 17:00:00 11,7 5,8 28 15 32 18 W 1027,9 2,1 0 0,0
17.01.2018 16:00:00 11,8 6,1 26 14 37 20 WNW 1028,1 1,7 12 0,0
17.01.2018 15:00:00 12,4 6,8 26 14 35 19 WNW 1028,4 1,7 12 0,0
17.01.2018 14:00:00 12,6 5,5 33 18 37 20 W 1029,0 1,8 2 0,0
17.01.2018 13:00:00 13,0 5,5 29 15 36 19 W 1029,7 1,9 26 -
17.01.2018 12:00:00 13,3 5,1 28 15 31 17 W 1029,7 1,8 54 0,0
17.01.2018 11:00:00 12,0 4,6 23 12 34 18 W 1029,7 2,0 25 0,0
17.01.2018 10:00:00 11,6 4,8 32 18 45 25 WNW 1029,0 1,9 0 0,0
17.01.2018 09:00:00 11,6 7,1 23 13 44 24 WNW 1028,6 1,1 0 0,0
17.01.2018 08:00:00 11,5 6,7 30 16 47 25 WNW 1028,1 1,8 0 0,0
17.01.2018 07:00:00 11,1 6,4 31 17 55 30 WNW 1027,3 1,7 0 -
17.01.2018 06:00:00 11,6 5,3 42 23 67 36 W 1027,2 2,1 0 0,0
17.01.2018 05:00:00 11,9 6,8 48 26 58 31 W 1027,2 2,1 0 0,0
17.01.2018 04:00:00 11,8 5,9 53 29 66 36 WNW 1026,9 2,2 0 0,0
17.01.2018 03:00:00 11,8 6,5 54 29 69 37 W 1026,5 2,3 0 0,0
17.01.2018 02:00:00 11,9 7,8 54 29 76 41 WNW 1026,0 2,6 0 0,0
17.01.2018 01:00:00 12,1 7,6 67 36 79 43 W 1024,9 2,3 0 -
17.01.2018 00:00:00 12,8 10,2 56 30 82 44 W 1024,6 2,1 0 0,0
16.01.2018 23:00:00 12,8 9,7 68 37 80 43 W 1023,7 2,4 0 0,0
16.01.2018 22:00:00 13,0 9,7 66 36 91 49 W 1023,2 2,5 0 0,0
16.01.2018 21:00:00 12,9 9,9 66 35 82 44 W 1023,1 2,3 0 0,0
16.01.2018 20:00:00 12,7 10,6 64 35 81 44 W 1022,4 2,6 0 0,0
16.01.2018 19:00:00 12,8 10,9 59 32 77 41 W 1022,7 2,4 0 -
16.01.2018 18:00:00 12,9 11,0 54 29 75 40 W 1022,1 2,3 0 0,0
16.01.2018 17:00:00 13,0 10,9 65 35 77 42 W 1022,1 2,1 0 0,0
16.01.2018 16:00:00 13,0 11,1 57 31 71 38 W 1021,9 2,1 0 0,0
16.01.2018 15:00:00 13,2 11,1 59 32 74 40 W 1021,9 2,3 2 0,0
16.01.2018 14:00:00 13,1 11,1 54 29 69 37 W 1023,2 2,1 5 0,0
16.01.2018 13:00:00 12,8 10,9 61 33 71 38 WSW 1023,6 2,2 6 -
16.01.2018 12:00:00 12,5 10,8 59 32 68 37 WSW 1023,9 1,8 0 0,0
16.01.2018 11:00:00 12,6 10,6 55 30 74 40 WSW 1023,5 2,0 17 0,0
16.01.2018 10:00:00 12,7 10,4 67 36 76 41 W 1022,7 2,3 1 0,0
16.01.2018 09:00:00 12,3 10,4 60 32 71 38 W 1022,5 2,4 0 0,0
16.01.2018 08:00:00 12,3 10,4 59 32 66 36 W 1022,4 2,4 0 0,0
16.01.2018 07:00:00 12,2 10,4 54 29 67 36 W 1021,9 2,4 0 -
16.01.2018 06:00:00 12,1 10,5 51 28 67 36 W 1022,2 2,4 0 0,0
16.01.2018 05:00:00 12,2 10,8 56 30 78 42 W 1022,3 2,6 0 0,0
16.01.2018 04:00:00 12,0 10,5 69 37 80 43 W 1021,9 2,1 0 0,0
16.01.2018 03:00:00 12,3 10,9 57 31 72 39 W 1021,7 2,8 0 0,0
16.01.2018 02:00:00 12,3 10,9 55 30 68 37 W 1022,1 3,5 0 0,0
16.01.2018 01:00:00 12,2 10,8 58 31 72 39 W 1021,7 2,9 0 -
16.01.2018 00:00:00 12,0 10,4 61 33 72 39 WSW 1021,5 2,3 0 0,0
15.01.2018 23:00:00 11,9 10,2 60 33 76 41 WSW 1020,7 2,4 0 0,0
15.01.2018 22:00:00 12,1 10,0 64 35 81 44 WSW 1020,7 2,4 0 0,0
15.01.2018 21:00:00 11,9 9,7 72 39 88 48 WSW 1019,6 2,5 0 0,0
15.01.2018 20:00:00 11,8 9,2 74 40 91 49 WSW 1019,1 2,5 0 0,0
15.01.2018 19:00:00 11,5 8,9 71 39 90 49 WSW 1018,7 2,4 0 -
15.01.2018 18:00:00 11,6 8,7 74 40 90 49 WSW 1018,4 2,4 8 0,0
15.01.2018 17:00:00 11,9 8,4 73 39 89 48 WSW 1017,8 2,5 29 0,0
15.01.2018 16:00:00 11,8 7,8 75 40 94 51 WSW 1017,9 2,5 7 0,0
15.01.2018 15:00:00 11,7 7,4 72 39 94 51 WSW 1018,4 2,6 30 0,0
15.01.2018 14:00:00 11,8 6,8 74 40 91 49 WSW 1019,0 2,5 13 0,0
15.01.2018 13:00:00 12,6 6,8 69 37 90 48 WSW 1019,9 2,5 55 -
15.01.2018 12:00:00 11,1 6,2 65 35 78 42 WSW 1021,3 2,5 10 0,0
15.01.2018 11:00:00 10,3 6,2 58 31 69 37 WSW 1021,7 2,6 0 0,0
15.01.2018 10:00:00 9,7 5,6 49 26 64 35 WSW 1021,7 2,5 0 0,0
15.01.2018 09:00:00 9,6 5,9 46 25 61 33 WSW 1022,2 2,5 0 0,0
15.01.2018 08:00:00 9,0 5,1 48 26 61 33 WSW 1021,9 2,6 0 0,0
15.01.2018 07:00:00 8,7 5,1 49 27 61 33 WSW 1022,1 2,5 0 -
15.01.2018 06:00:00 8,3 4,5 45 24 51 28 WSW 1022,2 2,5 0 0,0
15.01.2018 05:00:00 8,3 5,5 38 20 43 23 W 1022,7 2,4 0 0,0
15.01.2018 04:00:00 8,3 5,3 37 20 46 25 WSW 1022,4 2,6 0 0,0
15.01.2018 03:00:00 8,5 5,6 38 20 45 24 WSW 1022,7 2,4 0 0,0
15.01.2018 02:00:00 8,7 5,6 29 15 36 20 WSW 1023,0 2,2 0 0,0
15.01.2018 01:00:00 8,7 5,6 29 16 35 19 WSW 1023,3 2,1 0 -
15.01.2018 00:00:00 8,9 5,6 21 11 28 15 WSW 1023,4 2,0 0 0,0
14.01.2018 23:00:00 8,8 5,8 24 13 28 15 WSW 1023,4 2,3 0 0,0
14.01.2018 22:00:00 8,8 5,5 20 11 27 14 WSW 1022,8 2,2 0 0,0
14.01.2018 21:00:00 8,8 4,5 17 9 22 12 WSW 1022,4 1,9 0 0,0
14.01.2018 20:00:00 8,8 4,5 13 7 22 12 SW 1022,0 2,3 0 0,0
14.01.2018 19:00:00 9,0 5,0 18 10 21 11 WSW 1021,2 1,9 3 -
14.01.2018 18:00:00 10,6 5,3 13 7 29 15 WSW 1020,4 1,9 60 0,0
14.01.2018 17:00:00 11,2 5,5 25 14 38 21 W 1019,6 2,2 60 0,0
14.01.2018 16:00:00 11,9 6,2 34 19 39 21 W 1019,1 2,3 60 0,0
14.01.2018 15:00:00 13,0 6,4 19 10 23 13 W 1018,7 2,4 60 0,0
14.01.2018 14:00:00 12,8 6,8 16 9 20 11 W 1018,6 2,1 60 0,0
14.01.2018 13:00:00 11,7 7,3 17 9 25 13 WSW 1019,4 1,8 60 -
14.01.2018 12:00:00 10,5 6,2 23 12 29 16 WSW 1019,3 2,2 60 0,0
14.01.2018 11:00:00 9,3 5,5 27 15 36 19 WSW 1018,6 2,1 60 0,0
14.01.2018 10:00:00 8,5 5,5 23 13 32 17 WSW 1018,1 2,4 27 0,0
14.01.2018 09:00:00 7,5 4,6 19 11 42 23 WSW 1017,7 2,2 0 0,0
14.01.2018 08:00:00 7,7 5,0 31 17 35 19 WSW 1016,9 2,4 0 0,0
14.01.2018 07:00:00 7,5 5,0 19 11 29 16 WSW 1016,5 2,0 0 -
14.01.2018 06:00:00 7,5 5,1 24 13 36 19 WSW 1016,5 2,1 0 0,0
14.01.2018 05:00:00 7,5 5,0 24 13 38 20 WSW 1016,3 2,3 0 0,0
14.01.2018 04:00:00 7,6 5,5 20 11 45 24 W 1016,3 2,6 0 0,0
14.01.2018 03:00:00 7,6 5,6 30 16 44 24 WSW 1015,9 1,9 0 0,0
14.01.2018 02:00:00 7,5 5,3 30 16 45 25 WSW 1015,9 2,5 0 0,0
14.01.2018 01:00:00 7,4 5,1 28 15 41 22 WSW 1016,0 2,3 0 -
14.01.2018 00:00:00 7,2 4,8 36 20 51 28 WSW 1015,9 2,3 0 0,2
13.01.2018 23:00:00 7,3 4,8 33 18 48 26 WSW 1015,5 2,5 0 0,2
13.01.2018 22:00:00 7,6 5,1 37 20 47 25 WSW 1015,1 2,4 0 0,0
13.01.2018 21:00:00 8,4 5,5 32 17 37 20 WSW 1014,9 2,4 0 0,0
13.01.2018 20:00:00 8,4 4,8 24 13 46 25 SW 1014,7 2,4 0 0,0
13.01.2018 19:00:00 8,5 5,6 23 13 48 26 WSW 1013,9 2,3 0 -
13.01.2018 18:00:00 8,7 5,9 12 7 53 29 SW 1013,7 1,9 15 0,0
13.01.2018 17:00:00 8,8 5,1 50 27 63 34 W 1013,1 1,4 5 0,0
13.01.2018 16:00:00 10,4 6,8 36 19 51 28 WSW 1012,6 2,5 11 0,0
13.01.2018 15:00:00 11,0 7,0 35 19 50 27 WSW 1012,3 2,3 27 0,0
13.01.2018 14:00:00 11,1 6,8 32 18 41 22 WSW 1012,5 2,3 30 0,0
13.01.2018 13:00:00 11,0 7,1 34 18 43 23 WSW 1013,0 2,2 0 -
13.01.2018 12:00:00 10,6 7,0 35 19 45 24 WSW 1013,5 2,4 0 0,0
13.01.2018 11:00:00 10,1 7,0 35 19 46 25 WSW 1013,2 2,4 0 0,0
13.01.2018 10:00:00 9,9 7,0 34 18 44 24 WSW 1012,4 2,4 0 0,0
13.01.2018 09:00:00 9,8 7,0 34 18 40 21 WSW 1012,0 2,1 0 0,0
13.01.2018 08:00:00 9,5 7,0 26 14 35 19 WSW 1012,1 2,2 0 0,0
13.01.2018 07:00:00 9,4 7,0 30 16 36 19 WSW 1011,8 2,4 0 -
13.01.2018 06:00:00 9,6 7,1 28 15 47 26 WSW 1011,8 2,2 0 0,2

tt = temperature
td = dewpoint
ff = wind speed
fx = gusts
dd = wind direction
ppp = reduced air pressure
vv = visibility
sd = sunshine duration
rr = precipitation

Next stations